Regional Weather Roundup
Issued by NWS Mobile, AL

Home | Current Version | Previous Version | Text Only | Print | Product List | Glossary On
Versions: 1 2 3 4 5 6 7 8 9 10 11 12 13 14 15 16 17 18 19 20 21 22 23 24 25 26 27 28
000
ASUS44 KMOB 220713
RWRMOB
REGIONAL WEATHER ROUNDUP
NATIONAL WEATHER SERVICE MOBILE AL
200 AM CDT SAT JUL 22 2017

NOTE: "FAIR" INDICATES FEW OR NO CLOUDS BELOW 12,000 FEET WITH NO
      SIGNIFICANT WEATHER AND/OR OBSTRUCTIONS TO VISIBILITY.

  * THESE STATIONS ARE PART OF THE UNIVERSITY OF SOUTH ALABAMA
    MESONET AND ARE NOT UNDER NWS OR FAA QUALITY CONTROL.

ALZ061>064-220800-
COASTAL ALABAMA

CITY           SKY/WX    TMP DP  RH WIND       PRES   REMARKS
MOBILE REG APT CLEAR     75  73  93 CALM      29.99F
BROOKLEY FIELD CLEAR     79  77  94 W3        29.99F
USA CAMPUS*      N/A     72  70  94 CALM      29.99F
DOG RIVER*     NOT AVBL


CITY           SKY/WX    TMP DP  RH WIND       PRES   REMARKS
GULF SHORES    CLEAR     81  80  97 SE7       29.98S

$$

ALZ051>060-220800-
INTERIOR SOUTHWEST AND SOUTH CENTRAL ALABAMA

CITY           SKY/WX    TMP DP  RH WIND       PRES   REMARKS
GREENVILLE     PTCLDY    73  70  90 SW3       29.98F FOG
EVERGREEN      PTCLDY    74  73  97 CALM      29.99F FOG
ATMORE*        NOT AVBL
ANDALUSIA/OPP  CLEAR     73  69  87 CALM      29.99F
ANDALUSIA*       N/A     70  70 100 E2        30.00F
FLORALA APT    CLEAR     71  67  87 CALM      30.01F
FLORALA*         N/A     72  70  94 CALM      30.68F

$$

FLZ001>006-220800-
WESTERN FLORIDA PANHANDLE

CITY           SKY/WX    TMP DP  RH WIND       PRES   REMARKS
PENSACOLA      CLEAR     79  74  84 CALM      29.98F
NAS PENSACOLA  PTCLDY    77  75  93 S5        29.97F
MILTON         CLEAR     74  74 100 CALM      29.99F
WHTNG S FIELD  CLEAR     77  75  93 CALM      29.98F


CITY           SKY/WX    TMP DP  RH WIND       PRES   REMARKS
JAY*             N/A     75  73  94 CALM      29.99S
DUKE FIELD     PTCLDY    76  74  93 CALM      29.98F
CRESTVIEW      CLEAR     74  72  93 CALM      30.00F
VALPARAISO     PTCLDY    80  75  84 CALM      29.98F
DESTIN         PTCLDY    85  74  69 VRB5      29.97F

$$

MSZ076-079-220800-
INTERIOR SOUTHEAST MISSISSIPPI

CITY           SKY/WX    TMP DP  RH WIND       PRES   REMARKS
LEAKESVILLE*   NOT AVBL
AGRICOLA*        N/A     73  72  94 CALM      29.98F

$$

MARINE OBSERVATIONS

STATION/POSITION TIME  TEMP    WIND        PRES    WAVE
                       AIR SEA DIR/SP/G            HT/PER
                 (UTC) (F)     (DEG/KT/KT) (MB)    (FT/S)
PASCAGOULA       0648   81     130/  2/  2 1014.9F
PETIT BOIS ISLND 0648   83     120/  2/  2 1015.6F
GRAND BAY        0545   79      10/  3     1016.0F
KATRINA CUT      0630   84     230/  6     1014.9F
CEDAR POINT      0630   84     190/  8     1015.2F
E DAUPHIN ISLAND 0600   81     180/  4/  5 1015.1F
MIDDLE BAY LIGHT 0630   84     200/  6     1015.2F
USCG MOBILE BAY  0648   80 86   CALM  /  1 1015.7F
STATE DOCKS      0642   81 87              1015.1F
MEAHER PARK      0630   81      10/  2     1015.6S
WEEKS BAY        0545   79                   N/A
FORT MORGAN      0648   84     190/ 11/ 12   N/A
12 S ORANGE BCH  0650   84 87  200/ 10/ 14 1015.0F   1/ 3
PENSACOLA BAY    0642   83 89              1015.5F
64 S DAUPHIN ISL 0650   84 85  200/  8/ 10 1015.5F   1
67 S FORT MORGAN 0630   82     210/  8     1015.9F

$$

SELECTED LOCATIONS ACROSS THE REGION

CITY           SKY/WX    TMP DP  RH WIND       PRES   REMARKS
NEW ORLEANS    MOCLDY    80  78  94 CALM      29.98F
GULFPORT       PTCLDY    76  74  93 CALM      29.97F
PASCAGOULA AP  CLEAR     75  73  93 CALM      29.98F
PASCAGOULA*      N/A    N/A N/A N/A CALM        N/A
HATTIESBURG    PTCLDY    74  72  93 SW3       29.99F
LAUREL         PTCLDY    74  71  91 SW6       29.99F
MERIDIAN       CLEAR     74  72  93 S3        29.98S
JACKSON        PTCLDY    74  73  97 S5        29.98F
MONTGOMERY     CLEAR     74  69  85 CALM      29.98F
TROY           CLEAR     71  71 100 CALM      30.00F
ASHFORD*         N/A     70  70 100 E2        30.00F
DOTHAN         CLEAR     74  73  97 CALM      30.04S
PANAMA CITY    CLEAR     74  72  93 E3        29.98F

$$





USA.gov is the U.S. government's official web portal to all federal, state and local government web resources and services.